Soldotna, AK

10:28 PM AKDT on May 26, 2018 (GMT -0800)
Soldotna

Weather History for PASX - December, 2011

Change the Weather History Date:

Thursday, December 29, 2011

  Actual Average Record
Temperature  
Mean Temperature 0 °F -  
Max Temperature 8 °F 23 °F 46 °F (1982)
Min Temperature -9 °F 8 °F -39 °F (1961)
Degree Days  
Heating Degree Days 66    
Moisture  
Dew Point -4 °F    
Average Humidity 84    
Maximum Humidity 100    
Minimum Humidity 65    
Precipitation  
Precipitation 0.00 in - - ()
Sea Level Pressure  
Sea Level Pressure 29.30 in    
Wind  
Wind Speed 2 mph (East)    
Max Wind Speed 6 mph    
Max Gust Speed -    
Visibility 9 miles    
Events      
Averages and records for this station are not official NWS values.
T = Trace of Precipitation, MM = Missing Value Source: NWS Daily Summary

Daily Weather History Graph

Daily Weather History Graph

Search for Another Location

Airport or City:

Astronomy

Dec. 29, 2011 Rise Set
Actual Time 10:12 AM AKST 4:00 PM AKST
Civil Twilight 9:13 AM AKST 4:59 PM AKST
Nautical Twilight 8:15 AM AKST 5:57 PM AKST
Astronomical Twilight 7:23 AM AKST 6:49 PM AKST
Moon 11:33 AM AKST (12/29) 11:32 PM AKST (12/29)
Length of Visible Light 7h 46m
Length of Day
5h 48m
Waxing Crescent, 28% of the Moon is Illuminated
Dec 29
Waxing Crescent
Dec 31
First Quarter
Jan 8
Full
Jan 16
Last Quarter
Jan 22
New

Hourly Weather History & Observations

Time (AKST) Temp. Windchill Dew Point Humidity Pressure Visibility Wind Dir Wind Speed Gust Speed Precip Events Conditions
12:16 AM -2.2 °F - -9.4 °F 71% 29.15 in 10.0 mi Calm Calm - N/A   Clear
12:36 AM -4.0 °F - -7.6 °F 85% 29.16 in 10.0 mi Calm Calm - N/A   Clear
12:56 AM -4.0 °F - -7.6 °F 85% 29.17 in 10.0 mi Calm Calm - N/A   Clear
1:16 AM -2.2 °F - -9.4 °F 71% 29.17 in 10.0 mi Calm Calm - N/A   Clear
1:36 AM -5.8 °F - -11.2 °F 77% 29.17 in 10.0 mi Calm Calm - N/A   Clear
1:56 AM -5.8 °F -14.5 °F -9.4 °F 84% 29.18 in 10.0 mi East 3.5 mph - N/A   Clear
2:16 AM -5.8 °F -14.5 °F -13.0 °F 71% 29.18 in 10.0 mi ENE 3.5 mph - N/A   Clear
2:36 AM -7.6 °F -16.5 °F -11.2 °F 84% 29.19 in 10.0 mi ENE 3.5 mph - N/A   Clear
3:16 AM -9.4 °F - -13.0 °F 84% 29.20 in 10.0 mi Calm Calm - N/A   Clear
3:36 AM -7.6 °F - -9.4 °F 92% 29.22 in 10.0 mi Calm Calm - N/A   Partly Cloudy
3:56 AM -9.4 °F -18.6 °F -14.8 °F 77% 29.22 in 10.0 mi NE 3.5 mph - N/A   Clear
4:16 AM -9.4 °F -20.9 °F -13.0 °F 84% 29.22 in 10.0 mi NE 4.6 mph - N/A   Scattered Clouds
4:36 AM -9.4 °F -20.9 °F -9.4 °F 100% 29.23 in 10.0 mi ENE 4.6 mph - N/A   Mostly Cloudy
4:56 AM -4.0 °F -14.6 °F -5.8 °F 92% 29.23 in 10.0 mi East 4.6 mph - N/A   Mostly Cloudy
5:16 AM -5.8 °F -14.5 °F -14.8 °F 65% 29.24 in 10.0 mi East 3.5 mph - N/A   Mostly Cloudy
5:36 AM -4.0 °F -14.6 °F -4.0 °F 100% 29.24 in 10.0 mi ENE 4.6 mph - N/A   Mostly Cloudy
5:56 AM -5.8 °F -14.5 °F -14.8 °F 65% 29.25 in 10.0 mi East 3.5 mph - N/A   Overcast
6:16 AM -4.0 °F -12.4 °F -7.6 °F 85% 29.25 in 10.0 mi ENE 3.5 mph - N/A   Overcast
6:36 AM -4.0 °F -12.4 °F -9.4 °F 78% 29.26 in 10.0 mi ENE 3.5 mph - N/A   Overcast
6:56 AM -5.8 °F - -7.6 °F 92% 29.27 in 10.0 mi Calm Calm - N/A   Overcast
7:16 AM -5.8 °F -14.5 °F -9.4 °F 84% 29.28 in 8.0 mi ENE 3.5 mph - N/A   Overcast
7:36 AM -4.0 °F -14.6 °F -4.0 °F 100% 29.28 in 10.0 mi East 4.6 mph - N/A   Overcast
8:16 AM -5.8 °F -14.5 °F -11.2 °F 77% 29.30 in 10.0 mi ENE 3.5 mph - N/A   Overcast
8:36 AM -5.8 °F -18.4 °F -9.4 °F 84% 29.30 in 10.0 mi East 5.8 mph - N/A   Overcast
8:56 AM -5.8 °F -16.7 °F -5.8 °F 100% 29.31 in 10.0 mi ENE 4.6 mph - N/A   Mostly Cloudy
9:16 AM -5.8 °F -14.5 °F -11.2 °F 77% 29.32 in 7.0 mi East 3.5 mph - N/A   Overcast
9:36 AM -4.0 °F -14.6 °F -5.8 °F 92% 29.33 in 10.0 mi East 4.6 mph - N/A   Overcast
9:56 AM -4.0 °F -12.4 °F -7.6 °F 85% 29.33 in 9.0 mi East 3.5 mph - N/A   Mostly Cloudy
10:16 AM -5.8 °F -14.5 °F -9.4 °F 84% 29.34 in 10.0 mi East 3.5 mph - N/A   Mostly Cloudy
10:36 AM -2.2 °F -14.2 °F -5.8 °F 85% 29.34 in 10.0 mi East 5.8 mph - N/A   Overcast
10:56 AM -2.2 °F -14.2 °F -7.6 °F 78% 29.34 in 10.0 mi ESE 5.8 mph - N/A   Overcast
11:16 AM -0.4 °F -10.4 °F -2.2 °F 92% 29.34 in 10.0 mi East 4.6 mph - N/A   Overcast
11:36 AM 1.4 °F -8.3 °F -0.4 °F 92% 29.35 in 10.0 mi East 4.6 mph - N/A   Overcast
11:56 AM 1.4 °F -6.2 °F -0.4 °F 92% 29.36 in 10.0 mi East 3.5 mph - N/A   Overcast
12:16 PM 1.4 °F - -2.2 °F 85% 29.36 in 10.0 mi Calm Calm - N/A   Overcast
12:36 PM 1.4 °F - -0.4 °F 92% 29.37 in 9.0 mi Calm Calm - N/A   Overcast
12:56 PM 3.2 °F -4.2 °F -0.4 °F 85% 29.37 in 9.0 mi East 3.5 mph - N/A   Overcast
1:16 PM 3.2 °F -4.2 °F -0.4 °F 85% 29.37 in 9.0 mi East 3.5 mph - N/A   Overcast
1:56 PM 5.0 °F - 1.4 °F 85% 29.37 in 8.0 mi Calm Calm - N/A   Overcast
2:16 PM 5.0 °F - 1.4 °F 85% 29.37 in 9.0 mi Calm Calm - N/A   Overcast
2:36 PM 6.8 °F - 3.2 °F 85% 29.37 in 9.0 mi Calm Calm - N/A   Overcast
2:56 PM 6.8 °F - 1.4 °F 79% 29.37 in 7.0 mi Calm Calm - N/A   Overcast
3:16 PM 6.8 °F -0.1 °F 1.4 °F 79% 29.37 in 10.0 mi ESE 3.5 mph - N/A   Overcast
3:36 PM 6.8 °F -2.0 °F 3.2 °F 85% 29.37 in 10.0 mi ESE 4.6 mph - N/A   Overcast
3:56 PM 6.8 °F -2.0 °F 3.2 °F 85% 29.36 in 7.0 mi ESE 4.6 mph - N/A   Overcast
4:16 PM 6.8 °F -3.5 °F 1.4 °F 79% 29.37 in 5.0 mi ESE 5.8 mph - N/A   Overcast
4:36 PM 6.8 °F -2.0 °F 1.4 °F 79% 29.37 in 5.0 mi ESE 4.6 mph - N/A   Overcast
4:56 PM 6.8 °F -2.0 °F 3.2 °F 85% 29.37 in 9.0 mi East 4.6 mph - N/A   Overcast
5:16 PM 6.8 °F - 3.2 °F 85% 29.36 in 10.0 mi Calm Calm - N/A   Overcast
5:36 PM 6.8 °F - 3.2 °F 85% 29.36 in 7.0 mi Calm Calm - N/A   Overcast
6:16 PM 6.8 °F -2.0 °F 3.2 °F 85% 29.36 in 9.0 mi ENE 4.6 mph - N/A   Overcast
6:36 PM 6.8 °F -2.0 °F 3.2 °F 85% 29.36 in 10.0 mi ENE 4.6 mph - N/A   Overcast
6:56 PM 8.6 °F -1.3 °F 3.2 °F 79% 29.35 in 9.0 mi NE 5.8 mph - N/A   Overcast
7:16 PM 8.6 °F -1.3 °F 3.2 °F 79% 29.35 in 6.0 mi NE 5.8 mph - N/A   Overcast
7:36 PM 6.8 °F -3.5 °F 3.2 °F 85% 29.35 in 6.0 mi NE 5.8 mph - N/A   Overcast
7:56 PM 6.8 °F - 1.4 °F 79% 29.35 in 8.0 mi Calm Calm - N/A   Overcast
8:16 PM 6.8 °F -2.0 °F 3.2 °F 85% 29.36 in 7.0 mi ENE 4.6 mph - N/A   Overcast
8:36 PM 6.8 °F -0.1 °F 1.4 °F 79% 29.36 in 9.0 mi ENE 3.5 mph - N/A   Overcast
8:56 PM 6.8 °F -0.1 °F 1.4 °F 79% 29.36 in 7.0 mi ENE 3.5 mph - N/A   Overcast
9:16 PM 6.8 °F -2.0 °F 3.2 °F 85% 29.35 in 7.0 mi ENE 4.6 mph - N/A   Overcast
9:36 PM 6.8 °F -0.1 °F 3.2 °F 85% 29.35 in 5.0 mi ENE 3.5 mph - N/A   Overcast
9:56 PM 6.8 °F -2.0 °F 3.2 °F 85% 29.35 in 5.0 mi ENE 4.6 mph - N/A   Overcast
10:16 PM 6.8 °F -2.0 °F 3.2 °F 85% 29.35 in 4.0 mi ENE 4.6 mph - N/A   Overcast
10:36 PM 6.8 °F -2.0 °F 3.2 °F 85% 29.35 in 4.0 mi ENE 4.6 mph - N/A   Overcast
10:56 PM 6.8 °F -0.1 °F 3.2 °F 85% 29.35 in 4.0 mi ENE 3.5 mph - N/A   Overcast
11:16 PM 6.8 °F -2.0 °F 3.2 °F 85% 29.34 in 3.0 mi East 4.6 mph - N/A   Overcast
11:36 PM 6.8 °F -0.1 °F 3.2 °F 85% 29.34 in 3.0 mi East 3.5 mph - N/A   Overcast
11:56 PM 6.8 °F -6.9 °F 3.2 °F 85% 29.34 in 3.0 mi NE 9.2 mph - N/A   Overcast